M I D A S
Marine Information and Data Acquisition System
Tripno 2082 of the Zeeleeuw from 2011-04-21 11:06:20 to 2011-04-21 15:38:22
Back to CruiseResearch ActivitiesStationsMapUnderway DataData graphs

EquipmentUnitsComments
TimeDGPSUTC
LatitudeDGPSDM.mWGS84
LongitudeDGPSDM.mWGS84
SpeedMeteo Stationm/sRelative wind speed
DirectionMeteo StationdegRelative wind direction
TemperatureMeteo Stationdeg CelciusAir temperature
PressureMeteo StationPaAtmospheric pressure
HumidityMeteo Station%Relative humidity
Missing or incorrect values are displayed as -999
Metereological data collected by the RV Zeeleeuw from 2011-04-21 07:36:17 to 2011-04-21 15:43:30
                                                                                    Next 1000 lines
Time Latitude Longitude Speed Direction Temperature Pressure Humidity
2011-04-21 07:36:27 51°13.663 2°55.957 -999 347 17.2 101420 31
2011-04-21 07:36:32 51°13.663 2°55.956 -999 352 17.2 101420 31
2011-04-21 07:36:37 51°13.664 2°55.953 -999 352 17.2 101420 31
2011-04-21 07:36:42 51°13.665 2°55.951 -999 351 17.2 101420 31
2011-04-21 07:36:47 51°13.665 2°55.947 -999 352 17.2 101420 31
2011-04-21 07:36:52 51°13.667 2°55.944 -999 351 17.2 101420 31
2011-04-21 07:36:58 51°13.668 2°55.939 -999 352 17.2 101420 31
2011-04-21 07:37:04 51°13.67 2°55.934 -999 352 17.2 101420 31
2011-04-21 07:37:09 51°13.671 2°55.929 -999 356 17.2 101420 31
2011-04-21 07:37:15 51°13.673 2°55.923 -999 357 17.2 101420 31
2011-04-21 07:37:20 51°13.674 2°55.917 -999 357 17.2 101420 31
2011-04-21 07:37:25 51°13.676 2°55.911 -999 357 17.2 101420 31
2011-04-21 07:37:30 51°13.678 2°55.905 -999 359 17.2 101420 32
2011-04-21 07:37:35 51°13.68 2°55.898 -999 6 17.2 101420 32
2011-04-21 07:37:40 51°13.682 2°55.891 -999 13 17.2 101420 32
2011-04-21 07:37:45 51°13.684 2°55.884 -999 13 17.2 101420 32
2011-04-21 07:37:50 51°13.686 2°55.876 -999 14 17.2 101420 31
2011-04-21 07:37:55 51°13.688 2°55.869 -999 17 17.2 101420 31
2011-04-21 07:38:00 51°13.69 2°55.861 -999 18 17.2 101420 31
2011-04-21 07:38:05 51°13.692 2°55.853 -999 19 17.2 101420 31
2011-04-21 07:38:10 51°13.694 2°55.845 -999 21 17.2 101420 31
2011-04-21 07:38:15 51°13.696 2°55.837 -999 19 17.2 101420 31
2011-04-21 07:38:20 51°13.698 2°55.829 -999 17 17.2 101420 31
2011-04-21 07:38:25 51°13.701 2°55.821 -999 18 17.2 101420 31
2011-04-21 07:38:30 51°13.703 2°55.813 -999 24 17.2 101420 31
2011-04-21 07:38:35 51°13.706 2°55.805 -999 24 17.2 101420 31
2011-04-21 07:38:40 51°13.709 2°55.797 -999 24 17.2 101420 31
2011-04-21 07:38:45 51°13.712 2°55.789 -999 24 17.2 101420 31
2011-04-21 07:38:50 51°13.715 2°55.781 -999 24 17.2 101420 30
2011-04-21 07:38:55 51°13.718 2°55.773 -999 24 17.2 101420 30
2011-04-21 07:39:00 51°13.721 2°55.766 -999 24 17.3 101420 32
2011-04-21 07:39:05 51°13.724 2°55.758 -999 24 17.3 101420 32
2011-04-21 07:39:10 51°13.728 2°55.75 -999 38 17.3 101420 32
2011-04-21 07:39:15 51°13.732 2°55.743 -999 39 17.3 101420 32
2011-04-21 07:39:20 51°13.736 2°55.735 -999 32 17.3 101420 32
2011-04-21 07:39:25 51°13.74 2°55.727 -999 31 17.3 101420 32
2011-04-21 07:39:30 51°13.745 2°55.72 -999 31 17.3 101420 32
2011-04-21 07:39:35 51°13.75 2°55.713 -999 30 17.3 101420 32
2011-04-21 07:39:40 51°13.755 2°55.706 -999 23 17.3 101420 32
2011-04-21 07:39:45 51°13.759 2°55.699 -999 24 17.3 101420 32
2011-04-21 07:39:50 51°13.765 2°55.692 -999 24 17.3 101420 32
2011-04-21 07:39:55 51°13.77 2°55.685 -999 24 17.3 101420 32
2011-04-21 07:40:00 51°13.775 2°55.678 -999 24 17.3 101420 32
2011-04-21 07:40:05 51°13.781 2°55.672 -999 24 17.3 101420 32
2011-04-21 07:40:10 51°13.786 2°55.666 -999 21 17.3 101420 32
2011-04-21 07:40:15 51°13.792 2°55.66 -999 20 17.3 101420 32
2011-04-21 07:40:20 51°13.799 2°55.655 -999 15 17.3 101420 32
2011-04-21 07:40:25 51°13.805 2°55.65 -999 16 17.3 101420 32
2011-04-21 07:40:30 51°13.812 2°55.646 -999 14 17.3 101420 32
2011-04-21 07:40:35 51°13.818 2°55.642 -999 15 17.3 101420 32
2011-04-21 07:40:40 51°13.825 2°55.639 -999 253 17.4 101420 32
2011-04-21 07:40:45 51°13.832 2°55.636 -999 306 17.4 101420 32
2011-04-21 07:40:50 51°13.839 2°55.633 -999 265 17.4 101420 32
2011-04-21 07:40:55 51°13.847 2°55.631 -999 306 17.4 101420 32
2011-04-21 07:41:00 51°13.854 2°55.629 -999 265 17.4 101420 32
2011-04-21 07:41:05 51°13.861 2°55.628 -999 306 17.4 101420 32
2011-04-21 07:41:10 51°13.868 2°55.627 -999 267 17.5 101420 32
2011-04-21 07:41:15 51°13.874 2°55.626 -999 60 17.5 101420 32
2011-04-21 07:41:20 51°13.881 2°55.625 -999 26 17.5 101420 32
2011-04-21 07:41:25 51°13.887 2°55.625 -999 55 17.5 101420 32
2011-04-21 07:41:30 51°13.894 2°55.625 -999 25 17.5 101420 31
2011-04-21 07:41:35 51°13.9 2°55.625 -999 311 17.5 101420 31
2011-04-21 07:41:40 51°13.906 2°55.625 -999 270 17.6 101420 32
2011-04-21 07:41:45 51°13.911 2°55.626 -999 306 17.6 101420 32
2011-04-21 07:41:50 51°13.917 2°55.627 -999 269 17.6 101420 32
2011-04-21 07:41:55 51°13.922 2°55.628 -999 306 17.6 101420 32
2011-04-21 07:42:00 51°13.928 2°55.629 -999 266 17.6 101420 32
2011-04-21 07:42:05 51°13.933 2°55.631 -999 55 17.6 101420 32
2011-04-21 07:42:10 51°13.937 2°55.632 -999 269 17.6 101420 32
2011-04-21 07:42:15 51°13.942 2°55.634 -999 282 17.6 101420 32
2011-04-21 07:42:20 51°13.946 2°55.636 -999 26 17.6 101420 31
2011-04-21 07:42:25 51°13.95 2°55.638 -999 306 17.6 101420 31
2011-04-21 07:42:30 51°13.953 2°55.639 0.3 253 17.6 101420 31
2011-04-21 07:42:35 51°13.956 2°55.641 0.7 309 17.6 101420 31
2011-04-21 07:42:40 51°13.958 2°55.642 0.5 251 17.7 101420 31
2011-04-21 07:42:45 51°13.96 2°55.643 1.1 308 17.7 101420 31
2011-04-21 07:42:50 51°13.961 2°55.644 0.2 244 17.7 101420 31
2011-04-21 07:42:55 51°13.962 2°55.644 0.1 305 17.7 101420 31
2011-04-21 07:43:00 51°13.962 2°55.644 0.3 249 17.7 101420 31
2011-04-21 07:43:05 51°13.963 2°55.644 0.1 311 17.7 101420 31
2011-04-21 07:43:10 51°13.963 2°55.643 0.9 254 17.7 101420 31
2011-04-21 07:43:15 51°13.963 2°55.642 0.7 284 17.7 101420 31
2011-04-21 07:43:20 51°13.963 2°55.64 0.3 250 17.8 101420 31
2011-04-21 07:43:25 51°13.962 2°55.636 0.1 306 17.8 101420 31
2011-04-21 07:43:30 51°13.962 2°55.632 0.1 251 17.8 101420 32
2011-04-21 07:43:35 51°13.961 2°55.626 -999 306 17.8 101420 32
2011-04-21 07:43:40 51°13.961 2°55.62 -999 249 17.8 101420 31
2011-04-21 07:43:45 51°13.962 2°55.614 -999 306 17.8 101420 31
2011-04-21 07:43:50 51°13.963 2°55.606 -999 247 17.8 101420 31
2011-04-21 07:43:55 51°13.965 2°55.599 -999 306 17.8 101420 31
2011-04-21 07:44:00 51°13.967 2°55.591 -999 24 17.8 101420 31
2011-04-21 07:44:05 51°13.971 2°55.583 -999 306 17.8 101420 31
2011-04-21 07:44:10 51°13.975 2°55.576 -999 24 17.8 101420 30
2011-04-21 07:44:15 51°13.98 2°55.568 -999 306 17.8 101420 30
2011-04-21 07:44:19 51°13.984 2°55.562 -999 24 17.9 101420 31
2011-04-21 07:44:24 51°13.99 2°55.554 -999 306 17.9 101420 31
2011-04-21 07:44:29 51°13.997 2°55.545 -999 24 17.9 101420 31
2011-04-21 07:44:34 51°14.004 2°55.537 -999 306 17.9 101420 31
2011-04-21 07:44:39 51°14.011 2°55.528 -999 25 17.9 101420 31
2011-04-21 07:44:44 51°14.019 2°55.519 -999 305 17.9 101420 31
2011-04-21 07:44:48 51°14.026 2°55.512 -999 317 17.9 101420 31
2011-04-21 07:44:54 51°14.037 2°55.502 -999 306 17.9 101420 31
2011-04-21 07:44:59 51°14.046 2°55.493 -999 320 17.9 101420 31
2011-04-21 07:45:04 51°14.055 2°55.484 -999 306 17.9 101420 31
2011-04-21 07:45:09 51°14.064 2°55.476 -999 325 17.9 101420 31
2011-04-21 07:45:14 51°14.073 2°55.467 -999 282 17.9 101420 31
2011-04-21 07:45:19 51°14.083 2°55.459 -999 328 17.9 101420 31
2011-04-21 07:45:24 51°14.093 2°55.45 -999 330 17.9 101420 31
2011-04-21 07:45:29 51°14.103 2°55.441 -999 327 17.9 101420 31
2011-04-21 07:45:34 51°14.113 2°55.432 -999 326 17.9 101420 31
2011-04-21 07:45:40 51°14.126 2°55.421 -999 327 17.9 101420 31
2011-04-21 07:45:44 51°14.134 2°55.414 -999 327 17.9 101420 31
2011-04-21 07:45:50 51°14.148 2°55.402 -999 327 17.9 101420 31
2011-04-21 07:45:55 51°14.159 2°55.393 -999 330 17.9 101420 31
2011-04-21 07:46:00 51°14.171 2°55.383 -999 327 17.9 101420 31
2011-04-21 07:46:05 51°14.182 2°55.373 -999 328 17.9 101420 31
2011-04-21 07:46:10 51°14.194 2°55.362 -999 330 17.9 101420 31
2011-04-21 07:46:15 51°14.206 2°55.352 -999 327 17.9 101420 31
2011-04-21 07:46:20 51°14.218 2°55.341 -999 327 17.9 101420 31
2011-04-21 07:46:25 51°14.23 2°55.329 -999 328 17.9 101420 31
2011-04-21 07:46:30 51°14.242 2°55.317 -999 327 17.9 101420 31
2011-04-21 07:46:35 51°14.254 2°55.305 -999 326 17.9 101420 31
2011-04-21 07:46:40 51°14.266 2°55.292 -999 328 17.9 101420 31
2011-04-21 07:46:45 51°14.279 2°55.28 -999 328 17.9 101420 31
2011-04-21 07:46:50 51°14.291 2°55.267 -999 328 17.9 101420 29
2011-04-21 07:46:55 51°14.304 2°55.255 -999 332 17.9 101420 29
2011-04-21 07:47:00 51°14.317 2°55.243 -999 330 17.8 101420 31
2011-04-21 07:47:05 51°14.33 2°55.23 -999 300 17.8 101420 31
2011-04-21 07:47:10 51°14.343 2°55.218 -999 332 17.8 101420 31
2011-04-21 07:47:15 51°14.357 2°55.204 -999 282 17.8 101420 31
2011-04-21 07:47:20 51°14.371 2°55.192 -999 333 17.8 101420 31
2011-04-21 07:47:25 51°14.385 2°55.179 -999 334 17.8 101420 31
2011-04-21 07:47:29 51°14.396 2°55.17 -999 335 17.8 101420 31
2011-04-21 07:47:35 51°14.412 2°55.154 -999 333 17.8 101420 31
2011-04-21 07:47:40 51°14.426 2°55.141 -999 337 17.8 101420 31
2011-04-21 07:47:45 51°14.441 2°55.128 -999 336 17.8 101420 31
2011-04-21 07:47:50 51°14.455 2°55.115 -999 337 17.8 101420 31
2011-04-21 07:47:55 51°14.469 2°55.102 3.4 337 17.8 101420 31
2011-04-21 07:48:00 51°14.483 2°55.088 3.3 335 17.8 101420 31
2011-04-21 07:48:05 51°14.497 2°55.073 2.9 338 17.8 101420 31
2011-04-21 07:48:10 51°14.511 2°55.058 3.4 337 17.8 101430 31
2011-04-21 07:48:15 51°14.525 2°55.042 4.6 280 17.8 101430 31
2011-04-21 07:48:20 51°14.538 2°55.025 4.3 337 17.8 101430 31
2011-04-21 07:48:24 51°14.548 2°55.011 6.2 337 17.8 101430 31
2011-04-21 07:48:29 51°14.56 2°54.989 5.4 332 17.8 101420 32
2011-04-21 07:48:34 51°14.572 2°54.968 4.8 334 17.8 101420 32
2011-04-21 07:48:39 51°14.583 2°54.945 4.9 335 17.8 101420 32
2011-04-21 07:48:44 51°14.594 2°54.922 5 334 17.8 101420 32
2011-04-21 07:48:48 51°14.602 2°54.903 4.1 330 17.7 101420 32
2011-04-21 07:48:53 51°14.613 2°54.879 5.1 330 17.7 101420 32
2011-04-21 07:48:58 51°14.622 2°54.853 4.7 331 17.7 101420 33
2011-04-21 07:49:03 51°14.631 2°54.828 4.9 334 17.7 101420 33
2011-04-21 07:49:08 51°14.64 2°54.801 4.9 328 17.6 101420 31
2011-04-21 07:49:12 51°14.646 2°54.779 4.6 328 17.6 101420 31
2011-04-21 07:49:17 51°14.652 2°54.75 4.7 327 17.6 101420 31
2011-04-21 07:49:22 51°14.656 2°54.721 5.6 325 17.6 101420 31
2011-04-21 07:49:27 51°14.659 2°54.692 5 324 17.5 101420 30
2011-04-21 07:49:32 51°14.661 2°54.662 4.9 304 17.5 101420 30
2011-04-21 07:49:37 51°14.661 2°54.631 4.6 323 17.5 101420 31
2011-04-21 07:49:42 51°14.659 2°54.601 4.5 304 17.5 101420 31
2011-04-21 07:49:46 51°14.656 2°54.578 4.6 321 17.4 101420 32
2011-04-21 07:49:52 51°14.651 2°54.543 4.5 303 17.4 101420 32
2011-04-21 07:49:56 51°14.646 2°54.52 5.2 320 17.4 101420 32
2011-04-21 07:50:01 51°14.639 2°54.491 4.7 303 17.4 101420 32
2011-04-21 07:50:06 51°14.631 2°54.464 4.3 318 17.4 101420 32
2011-04-21 07:50:12 51°14.621 2°54.43 5.1 279 17.4 101420 32
2011-04-21 07:50:16 51°14.613 2°54.409 5.4 317 17.4 101420 32
2011-04-21 07:50:22 51°14.602 2°54.377 4.6 301 17.4 101420 32
2011-04-21 07:50:26 51°14.594 2°54.356 4.5 319 17.4 101420 32
2011-04-21 07:50:31 51°14.583 2°54.329 4.5 301 17.4 101420 32
2011-04-21 07:50:36 51°14.572 2°54.303 5.4 322 17.4 101420 32
2011-04-21 07:50:42 51°14.559 2°54.272 5 303 17.4 101420 32
2011-04-21 07:50:46 51°14.55 2°54.251 4.8 324 17.4 101420 32
2011-04-21 07:50:52 51°14.537 2°54.22 5.3 302 17.4 101420 32
2011-04-21 07:50:56 51°14.528 2°54.2 5 327 17.4 101420 32
2011-04-21 07:51:01 51°14.517 2°54.174 4.8 329 17.4 101420 32
2011-04-21 07:51:07 51°14.504 2°54.143 6.3 330 17.4 101420 32
2011-04-21 07:51:12 51°14.493 2°54.116 5.2 332 17.4 101420 32
2011-04-21 07:51:16 51°14.484 2°54.095 7.1 332 17.4 101420 32
2011-04-21 07:51:21 51°14.474 2°54.068 7.3 332 17.4 101420 32
2011-04-21 07:51:26 51°14.464 2°54.041 7.3 332 17.3 101420 32
2011-04-21 07:51:32 51°14.454 2°54.007 7.1 331 17.3 101420 32
2011-04-21 07:51:36 51°14.447 2°53.984 6.8 332 17.3 101420 32
2011-04-21 07:51:41 51°14.439 2°53.956 5.9 330 17.3 101420 32
2011-04-21 07:51:47 51°14.429 2°53.922 7 330 17.3 101420 32
2011-04-21 07:51:52 51°14.421 2°53.893 7.6 328 17.3 101420 32
2011-04-21 07:51:56 51°14.415 2°53.87 7.9 327 17.3 101420 32
2011-04-21 07:52:02 51°14.406 2°53.835 8.3 327 17.3 101420 32
2011-04-21 07:52:07 51°14.397 2°53.807 8.4 327 17.2 101420 31
2011-04-21 07:52:12 51°14.389 2°53.778 6.4 281 17.2 101420 31
2011-04-21 07:52:16 51°14.382 2°53.755 8.2 325 17.2 101420 33
2011-04-21 07:52:21 51°14.374 2°53.727 8.8 323 17.2 101420 33
2011-04-21 07:52:26 51°14.365 2°53.698 7.8 322 17.2 101420 32
2011-04-21 07:52:32 51°14.355 2°53.664 6.6 321 17.2 101420 32
2011-04-21 07:52:36 51°14.348 2°53.641 6.6 322 17.2 101420 32
2011-04-21 07:52:41 51°14.339 2°53.613 9.1 321 17.2 101420 32
2011-04-21 07:52:46 51°14.33 2°53.585 7.2 321 17.2 101420 33
2011-04-21 07:52:52 51°14.319 2°53.552 6.5 307 17.2 101420 33
2011-04-21 07:52:56 51°14.311 2°53.529 6.6 321 17.2 101420 33
2011-04-21 07:53:02 51°14.3 2°53.496 7.1 300 17.2 101420 33
2011-04-21 07:53:06 51°14.292 2°53.474 6.7 323 17.2 101410 33
2011-04-21 07:53:12 51°14.28 2°53.441 7.2 306 17.2 101410 33
2011-04-21 07:53:16 51°14.272 2°53.418 6 324 17.2 101410 32
2011-04-21 07:53:22 51°14.261 2°53.385 6 324 17.2 101410 32
2011-04-21 07:53:26 51°14.253 2°53.362 6.4 324 17.2 101410 32
2011-04-21 07:53:32 51°14.241 2°53.329 6 301 17.2 101410 32
2011-04-21 07:53:36 51°14.233 2°53.306 6.7 322 17.2 101410 32
2011-04-21 07:53:41 51°14.223 2°53.279 6.5 306 17.2 101410 32
2011-04-21 07:53:46 51°14.213 2°53.251 6.8 323 17.3 101420 32
2011-04-21 07:53:52 51°14.201 2°53.217 6.5 325 17.3 101420 32
2011-04-21 07:53:56 51°14.193 2°53.195 6.5 326 17.3 101420 31
2011-04-21 07:54:01 51°14.183 2°53.167 7.2 330 17.3 101420 31
2011-04-21 07:54:06 51°14.173 2°53.139 7.2 330 17.3 101410 31
2011-04-21 07:54:12 51°14.161 2°53.106 7 286 17.3 101410 31
2011-04-21 07:54:16 51°14.153 2°53.084 5.7 330 17.3 101420 32
2011-04-21 07:54:20 51°14.145 2°53.061 6.4 331 17.3 101420 32
2011-04-21 07:54:26 51°14.132 2°53.028 6.6 331 17.4 101420 32
2011-04-21 07:54:32 51°14.119 2°52.995 6.8 329 17.4 101420 32
2011-04-21 07:54:36 51°14.11 2°52.974 6.3 330 17.4 101420 31
2011-04-21 07:54:42 51°14.097 2°52.941 7.6 330 17.4 101420 31
2011-04-21 07:54:46 51°14.087 2°52.92 7.3 330 17.4 101420 30
2011-04-21 07:54:51 51°14.075 2°52.894 6.2 329 17.4 101420 30
2011-04-21 07:54:56 51°14.063 2°52.869 6.9 330 17.4 101420 32
2011-04-21 07:55:01 51°14.05 2°52.843 6.4 330 17.4 101420 32
2011-04-21 07:55:06 51°14.038 2°52.818 7.1 330 17.4 101420 32
2011-04-21 07:55:12 51°14.022 2°52.788 6.1 327 17.4 101420 32
2011-04-21 07:55:16 51°14.012 2°52.768 6.1 329 17.4 101420 31
2011-04-21 07:55:22 51°13.996 2°52.739 7.5 330 17.4 101420 31
2011-04-21 07:55:26 51°13.985 2°52.719 6.6 329 17.3 101420 31
2011-04-21 07:55:32 51°13.97 2°52.689 6.9 327 17.3 101420 31
2011-04-21 07:55:36 51°13.96 2°52.668 6.4 330 17.3 101410 31
2011-04-21 07:55:42 51°13.945 2°52.638 6.7 328 17.3 101410 31
2011-04-21 07:55:47 51°13.934 2°52.611 6 328 17.4 101420 31
2011-04-21 07:55:52 51°13.922 2°52.584 6.4 326 17.4 101420 31
2011-04-21 07:55:56 51°13.913 2°52.563 6.4 328 17.4 101420 31
2011-04-21 07:56:01 51°13.902 2°52.535 6.6 330 17.4 101420 31
2011-04-21 07:56:07 51°13.89 2°52.502 5.9 331 17.4 101420 31
2011-04-21 07:56:12 51°13.879 2°52.474 6.1 278 17.4 101420 31
2011-04-21 07:56:16 51°13.871 2°52.452 6.4 329 17.4 101410 31
2011-04-21 07:56:20 51°13.863 2°52.429 6.5 329 17.4 101410 31
2011-04-21 07:56:27 51°13.849 2°52.39 7.7 330 17.4 101410 31
2011-04-21 07:56:32 51°13.839 2°52.362 7.6 329 17.4 101410 31
2011-04-21 07:56:36 51°13.831 2°52.34 6.9 329 17.4 101420 32
2011-04-21 07:56:41 51°13.821 2°52.311 8.7 304 17.4 101420 32
2011-04-21 07:56:46 51°13.81 2°52.284 6.2 325 17.4 101420 32
2011-04-21 07:56:52 51°13.797 2°52.251 7.7 304 17.4 101420 32
2011-04-21 07:56:56 51°13.789 2°52.229 5.9 325 17.4 101420 32
2011-04-21 07:57:02 51°13.775 2°52.196 5.8 303 17.4 101420 32
2011-04-21 07:57:06 51°13.766 2°52.174 6.9 327 17.3 101420 31
2011-04-21 07:57:11 51°13.755 2°52.148 7.5 328 17.3 101420 31
2011-04-21 07:57:16 51°13.742 2°52.122 8.6 328 17.4 101410 31
2011-04-21 07:57:21 51°13.73 2°52.096 6.3 329 17.4 101410 31
2011-04-21 07:57:26 51°13.717 2°52.071 7.2 328 17.4 101410 30
2011-04-21 07:57:32 51°13.701 2°52.041 8.1 329 17.4 101410 30
2011-04-21 07:57:36 51°13.691 2°52.021 7.3 328 17.4 101410 31
2011-04-21 07:57:42 51°13.676 2°51.99 6.9 328 17.4 101410 31
2011-04-21 07:57:46 51°13.666 2°51.97 7.7 329 17.4 101410 32
2011-04-21 07:57:52 51°13.651 2°51.939 6.5 328 17.4 101410 32
2011-04-21 07:57:56 51°13.642 2°51.917 6.1 325 17.4 101410 32
2011-04-21 07:58:02 51°13.628 2°51.885 7.2 327 17.4 101410 32
2011-04-21 07:58:06 51°13.62 2°51.862 7 325 17.4 101410 32
2011-04-21 07:58:12 51°13.608 2°51.828 7 285 17.4 101410 32
2011-04-21 07:58:16 51°13.6 2°51.806 7.1 327 17.4 101410 32
2011-04-21 07:58:21 51°13.589 2°51.777 7.6 326 17.4 101410 32
2011-04-21 07:58:26 51°13.579 2°51.749 6 327 17.4 101410 32
2011-04-21 07:58:32 51°13.567 2°51.715 6.3 326 17.4 101410 32
2011-04-21 07:58:36 51°13.559 2°51.693 6.3 327 17.4 101410 32
2011-04-21 07:58:41 51°13.549 2°51.664 6.1 328 17.4 101410 32
2011-04-21 07:58:46 51°13.538 2°51.636 7.3 327 17.4 101410 32
2011-04-21 07:58:52 51°13.525 2°51.603 7 327 17.4 101410 32
2011-04-21 07:58:56 51°13.515 2°51.582 7.4 327 17.4 101410 32
2011-04-21 07:59:02 51°13.501 2°51.551 6.1 303 17.4 101410 32
2011-04-21 07:59:06 51°13.491 2°51.531 6.4 326 17.4 101410 32
2011-04-21 07:59:12 51°13.475 2°51.5 7.1 326 17.4 101410 32
2011-04-21 07:59:16 51°13.465 2°51.479 7 326 17.4 101410 32
2011-04-21 07:59:21 51°13.452 2°51.454 7.1 301 17.4 101410 32
2011-04-21 07:59:26 51°13.439 2°51.429 7.3 327 17.4 101410 32
2011-04-21 07:59:32 51°13.424 2°51.399 7.2 325 17.4 101410 32
2011-04-21 07:59:36 51°13.414 2°51.378 7.2 326 17.4 101410 32
2011-04-21 07:59:41 51°13.401 2°51.353 5.7 327 17.4 101410 32
2011-04-21 07:59:46 51°13.389 2°51.327 6.1 325 17.4 101410 33
2011-04-21 07:59:52 51°13.374 2°51.296 6.2 326 17.4 101410 33
2011-04-21 07:59:56 51°13.365 2°51.274 6.5 326 17.4 101410 33
2011-04-21 08:00:01 51°13.353 2°51.247 7.3 324 17.4 101410 33
2011-04-21 08:00:06 51°13.343 2°51.219 7.6 323 17.4 101410 32
2011-04-21 08:00:12 51°13.33 2°51.185 6.7 282 17.4 101410 32
2011-04-21 08:00:16 51°13.322 2°51.162 7 323 17.4 101410 32
2011-04-21 08:00:21 51°13.312 2°51.134 6.7 302 17.4 101410 32
2011-04-21 08:00:26 51°13.303 2°51.105 6 323 17.4 101410 32
2011-04-21 08:00:32 51°13.29 2°51.071 6.5 303 17.4 101410 32
2011-04-21 08:00:36 51°13.283 2°51.048 6.5 323 17.4 101410 32
2011-04-21 08:00:41 51°13.272 2°51.02 6.5 324 17.4 101410 32
2011-04-21 08:00:46 51°13.262 2°50.992 7.3 323 17.4 101410 33
2011-04-21 08:00:52 51°13.249 2°50.958 6.6 325 17.4 101410 33
2011-04-21 08:00:56 51°13.241 2°50.936 8.1 325 17.4 101410 32
2011-04-21 08:01:02 51°13.228 2°50.903 6.4 304 17.4 101410 32
2011-04-21 08:01:06 51°13.219 2°50.88 7.4 325 17.4 101410 32
2011-04-21 08:01:12 51°13.207 2°50.847 6.5 279 17.4 101410 32
2011-04-21 08:01:16 51°13.198 2°50.824 8.4 325 17.4 101410 33
2011-04-21 08:01:22 51°13.186 2°50.79 6.6 326 17.4 101410 33
2011-04-21 08:01:26 51°13.178 2°50.768 6.5 326 17.4 101410 33
2011-04-21 08:01:31 51°13.167 2°50.74 6.9 325 17.4 101410 33
2011-04-21 08:01:36 51°13.157 2°50.712 7.1 326 17.4 101410 33
2011-04-21 08:01:41 51°13.146 2°50.684 6.8 303 17.4 101410 33
2011-04-21 08:01:46 51°13.135 2°50.656 6.3 326 17.4 101410 32
2011-04-21 08:01:52 51°13.121 2°50.624 6 327 17.4 101410 32
2011-04-21 08:01:56 51°13.112 2°50.602 8.7 327 17.4 101410 32
2011-04-21 08:02:01 51°13.1 2°50.576 8.3 327 17.4 101410 32
2011-04-21 08:02:06 51°13.087 2°50.551 7.5 327 17.4 101410 32
2011-04-21 08:02:12 51°13.072 2°50.52 6.6 326 17.4 101410 32
2011-04-21 08:02:16 51°13.061 2°50.5 5.9 327 17.4 101410 33
2011-04-21 08:02:21 51°13.048 2°50.475 6.2 327 17.4 101410 33
2011-04-21 08:02:26 51°13.035 2°50.451 6.4 326 17.4 101410 33
2011-04-21 08:02:32 51°13.018 2°50.422 6.3 326 17.4 101410 33
2011-04-21 08:02:36 51°13.007 2°50.403 5.8 327 17.4 101410 33
2011-04-21 08:02:41 51°12.993 2°50.379 6.9 301 17.4 101410 33
2011-04-21 08:02:47 51°12.977 2°50.35 5.7 327 17.4 101410 32
2011-04-21 08:02:52 51°12.963 2°50.326 7 301 17.4 101410 32
2011-04-21 08:02:56 51°12.953 2°50.306 5.9 326 17.4 101410 32
2011-04-21 08:03:01 51°12.94 2°50.282 5.8 324 17.4 101410 32
2011-04-21 08:03:06 51°12.927 2°50.256 7.4 325 17.3 101410 32
2011-04-21 08:03:12 51°12.912 2°50.225 8.4 284 17.3 101410 32
2011-04-21 08:03:16 51°12.902 2°50.204 7.3 324 17.3 101410 33
2011-04-21 08:03:21 51°12.89 2°50.179 7.2 325 17.3 101410 33
2011-04-21 08:03:26 51°12.878 2°50.152 8.1 324 17.4 101410 32
2011-04-21 08:03:31 51°12.866 2°50.126 8.4 301 17.4 101410 32
2011-04-21 08:03:36 51°12.854 2°50.099 8.6 324 17.4 101410 32
2011-04-21 08:03:41 51°12.842 2°50.073 6.3 304 17.4 101410 32
2011-04-21 08:03:46 51°12.831 2°50.047 7.1 323 17.4 101410 32
2011-04-21 08:03:52 51°12.816 2°50.015 8.4 304 17.4 101410 32
2011-04-21 08:03:56 51°12.807 2°49.994 7 325 17.4 101400 33
2011-04-21 08:04:02 51°12.793 2°49.962 6.3 323 17.4 101400 33
2011-04-21 08:04:06 51°12.783 2°49.941 7.4 323 17.4 101410 33
2011-04-21 08:04:11 51°12.772 2°49.915 7.7 306 17.4 101410 33
2011-04-21 08:04:16 51°12.76 2°49.888 6.5 323 17.4 101400 33
2011-04-21 08:04:22 51°12.747 2°49.856 8.4 323 17.4 101400 33
2011-04-21 08:04:26 51°12.737 2°49.835 6.3 323 17.4 101400 32
2011-04-21 08:04:32 51°12.724 2°49.802 8.5 305 17.4 101400 32
2011-04-21 08:04:36 51°12.715 2°49.781 7.4 322 17.4 101400 33
2011-04-21 08:04:42 51°12.701 2°49.749 6.1 307 17.4 101400 33
2011-04-21 08:04:46 51°12.692 2°49.727 7.1 322 17.4 101410 33
2011-04-21 08:04:52 51°12.678 2°49.695 6.7 302 17.4 101410 33
2011-04-21 08:04:56 51°12.669 2°49.674 8.5 322 17.4 101400 32
2011-04-21 08:05:01 51°12.658 2°49.648 6.3 323 17.4 101400 32
2011-04-21 08:05:06 51°12.646 2°49.622 8 322 17.4 101400 32
2011-04-21 08:05:12 51°12.632 2°49.591 7.1 278 17.4 101400 32
2011-04-21 08:05:16 51°12.622 2°49.571 6.7 323 17.4 101400 33
2011-04-21 08:05:21 51°12.609 2°49.545 7.5 305 17.4 101400 33
2011-04-21 08:05:26 51°12.597 2°49.52 6 322 17.5 101400 31
2011-04-21 08:05:32 51°12.582 2°49.49 5.7 306 17.5 101400 31
2011-04-21 08:05:36 51°12.573 2°49.469 6 321 17.5 101400 33
2011-04-21 08:05:41 51°12.563 2°49.442 8.4 302 17.5 101400 33
2011-04-21 08:05:46 51°12.553 2°49.415 6.2 321 17.5 101400 33
2011-04-21 08:05:52 51°12.541 2°49.381 6.3 301 17.5 101400 33
2011-04-21 08:05:56 51°12.534 2°49.358 5.9 322 17.5 101400 32
2011-04-21 08:06:02 51°12.523 2°49.324 6.1 323 17.5 101400 32
2011-04-21 08:06:06 51°12.517 2°49.301 7 323 17.5 101410 32
2011-04-21 08:06:11 51°12.508 2°49.272 6.6 305 17.5 101410 32
2011-04-21 08:06:16 51°12.5 2°49.242 5.9 323 17.5 101410 32
2011-04-21 08:06:22 51°12.491 2°49.207 6.9 301 17.5 101410 32
2011-04-21 08:06:26 51°12.485 2°49.183 5.7 324 17.6 101410 33
2011-04-21 08:06:32 51°12.476 2°49.148 7.4 302 17.6 101410 33
2011-04-21 08:06:36 51°12.47 2°49.124 5.9 324 17.6 101410 33
2011-04-21 08:06:42 51°12.46 2°49.088 8 304 17.6 101410 33
2011-04-21 08:06:46 51°12.454 2°49.064 7.6 323 17.6 101410 33
2011-04-21 08:06:52 51°12.444 2°49.029 6.4 304 17.6 101410 33
2011-04-21 08:06:56 51°12.438 2°49.005 7.4 323 17.6 101410 33
2011-04-21 08:07:02 51°12.428 2°48.97 7.2 324 17.6 101410 33
2011-04-21 08:07:06 51°12.422 2°48.946 6.5 324 17.6 101410 34
2011-04-21 08:07:12 51°12.411 2°48.911 7.5 285 17.6 101410 34
2011-04-21 08:07:16 51°12.405 2°48.888 7 323 17.6 101410 34
2011-04-21 08:07:21 51°12.395 2°48.859 8.4 302 17.6 101410 34
2011-04-21 08:07:26 51°12.386 2°48.831 8.5 324 17.6 101410 34
2011-04-21 08:07:32 51°12.373 2°48.798 5.7 303 17.6 101410 34
2011-04-21 08:07:36 51°12.365 2°48.776 6.5 323 17.6 101410 34
2011-04-21 08:07:41 51°12.354 2°48.748 7.4 304 17.6 101410 34
2011-04-21 08:07:46 51°12.344 2°48.721 6.7 322 17.6 101410 33
2011-04-21 08:07:52 51°12.33 2°48.689 7.2 304 17.6 101410 33
2011-04-21 08:07:56 51°12.322 2°48.667 8.3 322 17.6 101410 34
2011-04-21 08:08:01 51°12.311 2°48.64 7.2 302 17.6 101410 34
2011-04-21 08:08:06 51°12.3 2°48.613 7.2 323 17.5 101410 32
2011-04-21 08:08:12 51°12.287 2°48.581 6.2 301 17.5 101410 32
2011-04-21 08:08:16 51°12.278 2°48.559 7.1 322 17.5 101410 34
2011-04-21 08:08:21 51°12.267 2°48.531 6.6 308 17.5 101410 34
2011-04-21 08:08:26 51°12.257 2°48.504 7.1 321 17.5 101400 33
2011-04-21 08:08:31 51°12.246 2°48.476 6.7 303 17.5 101400 33
2011-04-21 08:08:36 51°12.236 2°48.449 6.7 323 17.5 101410 33
2011-04-21 08:08:41 51°12.227 2°48.42 5.6 306 17.5 101410 33
2011-04-21 08:08:46 51°12.218 2°48.391 5.9 322 17.6 101410 34
2011-04-21 08:08:52 51°12.207 2°48.356 5.7 300 17.6 101410 34
2011-04-21 08:08:56 51°12.201 2°48.333 6.3 324 17.6 101410 33
2011-04-21 08:09:02 51°12.191 2°48.297 5.9 304 17.6 101410 33
2011-04-21 08:09:07 51°12.184 2°48.267 5.4 323 17.6 101410 32
2011-04-21 08:09:12 51°12.176 2°48.237 6.2 278 17.6 101410 32
2011-04-21 08:09:16 51°12.17 2°48.213 5.5 324 17.6 101410 33
2011-04-21 08:09:21 51°12.163 2°48.183 5.1 324 17.6 101410 33
2011-04-21 08:09:26 51°12.156 2°48.153 5.9 325 17.6 101410 32
2011-04-21 08:09:32 51°12.147 2°48.117 4.8 304 17.6 101410 32
2011-04-21 08:09:36 51°12.141 2°48.093 5.2 326 17.6 101410 32
2011-04-21 08:09:41 51°12.133 2°48.063 5.3 327 17.6 101410 32
2011-04-21 08:09:46 51°12.125 2°48.033 5.8 328 17.6 101410 33
2011-04-21 08:09:52 51°12.115 2°47.998 7.5 330 17.6 101410 33
2011-04-21 08:09:56 51°12.108 2°47.975 5.2 327 17.6 101410 32
2011-04-21 08:10:01 51°12.099 2°47.946 7.5 333 17.6 101410 32
2011-04-21 08:10:06 51°12.089 2°47.918 6.7 330 17.6 101410 33
2011-04-21 08:10:12 51°12.077 2°47.885 6.7 331 17.6 101410 33
2011-04-21 08:10:16 51°12.069 2°47.863 5.8 329 17.6 101410 34
2011-04-21 08:10:21 51°12.058 2°47.836 5.4 332 17.6 101410 34
2011-04-21 08:10:26 51°12.047 2°47.808 7 333 17.5 101410 34
2011-04-21 08:10:32 51°12.035 2°47.776 7.6 330 17.5 101410 34
2011-04-21 08:10:36 51°12.026 2°47.754 5.4 330 17.4 101410 34
2011-04-21 08:10:41 51°12.015 2°47.727 6.4 328 17.4 101410 34
2011-04-21 08:10:46 51°12.004 2°47.7 5 330 17.3 101420 33
2011-04-21 08:10:52 51°11.992 2°47.667 5.1 330 17.3 101420 33
2011-04-21 08:10:56 51°11.984 2°47.645 5.9 329 17.2 101410 34
2011-04-21 08:11:01 51°11.973 2°47.617 6.2 332 17.2 101410 34
2011-04-21 08:11:06 51°11.964 2°47.589 5.2 332 17.2 101420 35
2011-04-21 08:11:11 51°11.955 2°47.561 5.9 278 17.2 101420 35
2011-04-21 08:11:16 51°11.946 2°47.532 5.3 327 17.1 101420 35
2011-04-21 08:11:21 51°11.938 2°47.503 6 328 17.1 101420 35
2011-04-21 08:11:26 51°11.93 2°47.473 5.2 326 17 101420 34
2011-04-21 08:11:32 51°11.921 2°47.437 6.8 330 17 101420 34
2011-04-21 08:11:36 51°11.915 2°47.413 6.7 325 17 101420 35
2011-04-21 08:11:41 51°11.908 2°47.384 6.5 302 17 101420 35
2011-04-21 08:11:46 51°11.901 2°47.354 5.4 325 16.9 101420 35
2011-04-21 08:11:52 51°11.892 2°47.318 6 323 16.9 101420 35
2011-04-21 08:11:56 51°11.886 2°47.294 5.1 323 16.9 101410 35
2011-04-21 08:12:01 51°11.88 2°47.263 4.8 307 16.9 101410 35
2011-04-21 08:12:07 51°11.871 2°47.227 6 323 16.8 101420 35
2011-04-21 08:12:12 51°11.864 2°47.197 5.5 305 16.8 101420 35
2011-04-21 08:12:16 51°11.858 2°47.173 5.8 323 16.8 101410 35
2011-04-21 08:12:22 51°11.849 2°47.138 5.2 303 16.8 101410 35
2011-04-21 08:12:26 51°11.842 2°47.114 5 324 16.8 101420 35
2011-04-21 08:12:32 51°11.832 2°47.079 4.9 323 16.8 101420 35
2011-04-21 08:12:36 51°11.825 2°47.056 5.7 324 16.8 101420 34
2011-04-21 08:12:41 51°11.816 2°47.027 5.7 302 16.8 101420 34
2011-04-21 08:12:46 51°11.807 2°46.999 5.5 323 16.8 101420 34
2011-04-21 08:12:52 51°11.795 2°46.966 5.1 303 16.8 101420 34
2011-04-21 08:12:56 51°11.786 2°46.944 5.2 325 16.8 101410 34
2011-04-21 08:13:01 51°11.776 2°46.916 5 302 16.8 101410 34
2011-04-21 08:13:06 51°11.766 2°46.889 5.7 325 16.8 101410 34
2011-04-21 08:13:12 51°11.753 2°46.856 5.4 285 16.8 101410 34
2011-04-21 08:13:16 51°11.744 2°46.835 6.1 327 16.9 101420 34
2011-04-21 08:13:21 51°11.733 2°46.808 6.2 327 16.9 101420 34
2011-04-21 08:13:26 51°11.723 2°46.78 5.2 326 16.9 101410 32
2011-04-21 08:13:32 51°11.71 2°46.747 5.1 325 16.9 101410 32
2011-04-21 08:13:36 51°11.702 2°46.725 5.8 328 16.9 101410 34
2011-04-21 08:13:41 51°11.693 2°46.697 4.8 329 16.9 101410 34
2011-04-21 08:13:47 51°11.682 2°46.663 5.4 330 17 101410 34
2011-04-21 08:13:52 51°11.673 2°46.634 5.1 326 17 101410 34
2011-04-21 08:13:56 51°11.666 2°46.61 5.1 329 16.9 101410 33
2011-04-21 08:14:01 51°11.658 2°46.581 5 302 16.9 101410 33
2011-04-21 08:14:06 51°11.651 2°46.551 5.1 328 17 101420 33
2011-04-21 08:14:12 51°11.642 2°46.515 5.3 329 17 101420 33
2011-04-21 08:14:16 51°11.636 2°46.491 5.6 332 17 101410 34
2011-04-21 08:14:20 51°11.63 2°46.467 6 330 17 101410 34
2011-04-21 08:14:27 51°11.62 2°46.425 6.3 335 16.9 101410 34
2011-04-21 08:14:32 51°11.613 2°46.395 6.5 334 16.9 101410 34
2011-04-21 08:14:36 51°11.607 2°46.371 6.1 328 16.9 101420 33
2011-04-21 08:14:41 51°11.6 2°46.341 5.1 327 16.9 101420 33
2011-04-21 08:14:46 51°11.592 2°46.311 6.2 326 16.9 101410 34
2011-04-21 08:14:52 51°11.583 2°46.275 5.2 325 16.9 101410 34
2011-04-21 08:14:56 51°11.577 2°46.252 5 325 16.9 101410 33
2011-04-21 08:15:01 51°11.568 2°46.222 5 330 16.9 101410 33
2011-04-21 08:15:06 51°11.559 2°46.194 5.8 332 16.9 101410 34
2011-04-21 08:15:12 51°11.548 2°46.159 4.9 286 16.9 101410 34
2011-04-21 08:15:16 51°11.541 2°46.137 5.6 327 16.9 101420 34
2011-04-21 08:15:21 51°11.53 2°46.11 4.8 327 16.9 101420 34
2011-04-21 08:15:26 51°11.52 2°46.082 5.8 327 16.9 101420 35
2011-04-21 08:15:32 51°11.508 2°46.049 6.2 323 16.9 101420 35
2011-04-21 08:15:36 51°11.5 2°46.027 5.3 323 16.8 101410 35
2011-04-21 08:15:41 51°11.491 2°45.999 5.1 323 16.8 101410 35
2011-04-21 08:15:47 51°11.479 2°45.965 5.2 322 16.8 101420 35
2011-04-21 08:15:52 51°11.471 2°45.936 5.8 322 16.8 101420 35
2011-04-21 08:15:56 51°11.464 2°45.913 5.3 322 16.8 101410 35
2011-04-21 08:16:01 51°11.456 2°45.884 6.1 303 16.8 101410 35
2011-04-21 08:16:06 51°11.447 2°45.855 7 322 16.8 101420 34
2011-04-21 08:16:12 51°11.438 2°45.819 6.1 304 16.8 101420 34
2011-04-21 08:16:16 51°11.432 2°45.795 5.4 329 16.7 101410 35
2011-04-21 08:16:20 51°11.426 2°45.771 5.4 325 16.7 101410 35
2011-04-21 08:16:27 51°11.416 2°45.73 5.7 324 16.7 101410 35
2011-04-21 08:16:32 51°11.409 2°45.7 6.3 304 16.7 101410 35
2011-04-21 08:16:36 51°11.403 2°45.676 5.8 323 16.7 101410 36
2011-04-21 08:16:42 51°11.394 2°45.64 6.3 301 16.7 101410 36
2011-04-21 08:16:46 51°11.388 2°45.616 6.2 324 16.7 101410 36
2011-04-21 08:16:52 51°11.379 2°45.581 6.9 304 16.7 101410 36
2011-04-21 08:16:56 51°11.373 2°45.557 5.3 324 16.7 101410 36
2011-04-21 08:17:01 51°11.365 2°45.527 6.2 324 16.7 101410 36
2011-04-21 08:17:06 51°11.357 2°45.498 6.8 324 16.6 101410 36
2011-04-21 08:17:12 51°11.348 2°45.463 6.2 282 16.6 101410 36
2011-04-21 08:17:16 51°11.341 2°45.44 6.1 324 16.6 101410 35
2011-04-21 08:17:22 51°11.33 2°45.405 7 303 16.6 101410 35
2011-04-21 08:17:26 51°11.323 2°45.383 6.4 324 16.6 101410 36
2011-04-21 08:17:31 51°11.313 2°45.355 5.2 303 16.6 101410 36
2011-04-21 08:17:36 51°11.304 2°45.327 7 323 16.6 101410 35
2011-04-21 08:17:41 51°11.294 2°45.299 5.7 324 16.6 101410 35
2011-04-21 08:17:46 51°11.284 2°45.272 6.1 325 16.6 101400 35
2011-04-21 08:17:52 51°11.272 2°45.239 6.2 304 16.6 101400 35
2011-04-21 08:17:56 51°11.263 2°45.218 6.6 324 16.6 101410 35
2011-04-21 08:18:02 51°11.25 2°45.186 6.7 304 16.6 101410 35
2011-04-21 08:18:07 51°11.239 2°45.159 6.6 324 16.7 101410 35
2011-04-21 08:18:12 51°11.228 2°45.133 6 325 16.7 101410 35
2011-04-21 08:18:16 51°11.22 2°45.111 6.7 325 16.7 101410 34
2011-04-21 08:18:21 51°11.21 2°45.084 6.1 304 16.7 101410 34
2011-04-21 08:18:26 51°11.2 2°45.057 8.1 325 16.7 101410 35
2011-04-21 08:18:32 51°11.189 2°45.024 7 301 16.7 101410 35
2011-04-21 08:18:36 51°11.182 2°45.002 5.8 324 16.8 101410 35
2011-04-21 08:18:41 51°11.174 2°44.973 5.7 301 16.8 101410 35
2011-04-21 08:18:46 51°11.166 2°44.944 5.7 323 16.8 101410 34
2011-04-21 08:18:52 51°11.158 2°44.908 6.7 323 16.8 101410 34
2011-04-21 08:18:56 51°11.152 2°44.885 5.3 323 16.7 101410 35
2011-04-21 08:19:01 51°11.146 2°44.855 5.4 307 16.7 101410 35
2011-04-21 08:19:06 51°11.14 2°44.825 6.5 322 16.8 101410 35
2011-04-21 08:19:12 51°11.133 2°44.789 6.9 284 16.8 101410 35
2011-04-21 08:19:16 51°11.128 2°44.765 6.8 323 16.8 101410 35
2011-04-21 08:19:21 51°11.123 2°44.735 5.4 323 16.8 101410 35
2011-04-21 08:19:26 51°11.117 2°44.705 5.4 324 16.7 101410 36
2011-04-21 08:19:31 51°11.11 2°44.675 6.6 323 16.7 101410 36
2011-04-21 08:19:36 51°11.104 2°44.645 6.3 323 16.7 101410 35
2011-04-21 08:19:41 51°11.097 2°44.615 6.7 306 16.7 101410 35
2011-04-21 08:19:46 51°11.091 2°44.585 6.5 323 16.7 101410 34
2011-04-21 08:19:52 51°11.082 2°44.55 5.8 304 16.7 101410 34
2011-04-21 08:19:56 51°11.076 2°44.527 7 323 16.7 101410 35
2011-04-21 08:20:01 51°11.067 2°44.499 7.2 303 16.7 101410 35
2011-04-21 08:20:07 51°11.057 2°44.465 6.9 324 16.8 101400 36
2011-04-21 08:20:12 51°11.047 2°44.437 5.6 323 16.8 101400 36
2011-04-21 08:20:16 51°11.04 2°44.415 5.7 323 16.8 101400 36
2011-04-21 08:20:21 51°11.03 2°44.388 8 324 16.8 101400 36
2011-04-21 08:20:27 51°11.018 2°44.356 6.6 326 16.8 101410 35
2011-04-21 08:20:32 51°11.007 2°44.329 6.4 301 16.8 101410 35
2011-04-21 08:20:36 51°11 2°44.307 6.9 325 16.8 101410 35
2011-04-21 08:20:41 51°10.99 2°44.28 6.9 303 16.8 101410 35
2011-04-21 08:20:46 51°10.98 2°44.253 7.2 324 16.8 101410 35
2011-04-21 08:20:52 51°10.968 2°44.221 7.2 325 16.8 101410 35
2011-04-21 08:20:56 51°10.96 2°44.199 6.6 324 16.8 101410 35
2011-04-21 08:21:01 51°10.95 2°44.173 6 325 16.8 101410 35
2011-04-21 08:21:06 51°10.94 2°44.146 6.8 324 16.8 101400 35
2011-04-21 08:21:12 51°10.929 2°44.113 7 284 16.8 101400 35
2011-04-21 08:21:16 51°10.921 2°44.092 6.4 323 16.8 101400 35
2011-04-21 08:21:22 51°10.91 2°44.059 5.8 301 16.8 101400 35
2011-04-21 08:21:26 51°10.903 2°44.037 6.1 324 16.8 101400 33
2011-04-21 08:21:32 51°10.893 2°44.003 6.5 307 16.8 101400 33
2011-04-21 08:21:36 51°10.887 2°43.98 5.6 322 16.9 101400 33
2011-04-21 08:21:41 51°10.881 2°43.95 5.7 303 16.9 101400 33
2011-04-21 08:21:46 51°10.875 2°43.921 6.1 323 16.9 101400 33
2011-04-21 08:21:52 51°10.868 2°43.886 6.4 323 16.9 101400 33
2011-04-21 08:21:56 51°10.863 2°43.862 5.4 322 16.9 101400 33
2011-04-21 08:22:02 51°10.857 2°43.826 6.1 303 16.9 101400 33
2011-04-21 08:22:06 51°10.853 2°43.802 6.4 322 16.9 101400 34
2011-04-21 08:22:12 51°10.847 2°43.766 6.5 302 16.9 101400 34
2011-04-21 08:22:16 51°10.843 2°43.742 6.4 323 17 101410 34
2011-04-21 08:22:22 51°10.837 2°43.706 6.2 323 17 101410 34
2011-04-21 08:22:26 51°10.833 2°43.682 6.8 322 17 101400 34
2011-04-21 08:22:32 51°10.826 2°43.647 6.3 304 17 101400 34
2011-04-21 08:22:36 51°10.821 2°43.623 7.4 323 17 101400 34
2011-04-21 08:22:42 51°10.814 2°43.587 6.7 304 17 101400 34
2011-04-21 08:22:47 51°10.807 2°43.558 6.6 322 17 101400 34
2011-04-21 08:22:52 51°10.801 2°43.529 6.8 306 17 101400 34
2011-04-21 08:22:56 51°10.795 2°43.505 6 323 17.1 101400 34
2011-04-21 08:23:01 51°10.787 2°43.477 6.7 323 17.1 101400 34
2011-04-21 08:23:07 51°10.777 2°43.443 7.4 323 17.1 101400 33
2011-04-21 08:23:12 51°10.768 2°43.416 7.1 281 17.1 101400 33
2011-04-21 08:23:16 51°10.76 2°43.394 7.9 323 17.1 101400 33
2011-04-21 08:23:20 51°10.753 2°43.372 3.3 304 17.1 101400 33
2011-04-21 08:23:26 51°10.741 2°43.34 6 322 17.1 101400 34
2011-04-21 08:23:32 51°10.729 2°43.308 7.3 302 17.1 101400 34
2011-04-21 08:23:36 51°10.721 2°43.287 5.9 322 17.2 101400 33
2011-04-21 08:23:42 51°10.709 2°43.255 8.1 303 17.2 101400 33
2011-04-21 08:23:46 51°10.701 2°43.234 7.5 322 17.2 101400 33
2011-04-21 08:23:51 51°10.691 2°43.207 7.4 322 17.2 101400 33
2011-04-21 08:23:56 51°10.681 2°43.181 7.7 322 17.3 101400 33
2011-04-21 08:24:01 51°10.672 2°43.154 5.7 308 17.3 101400 33
2011-04-21 08:24:07 51°10.66 2°43.122 6.2 321 17.3 101400 32
2011-04-21 08:24:12 51°10.651 2°43.095 7.2 281 17.3 101400 32
2011-04-21 08:24:16 51°10.644 2°43.073 6.7 319 17.3 101400 33
2011-04-21 08:24:21 51°10.637 2°43.045 6.6 306 17.3 101400 33
2011-04-21 08:24:26 51°10.63 2°43.016 6.8 318 17.3 101400 32
2011-04-21 08:24:32 51°10.624 2°42.981 6.3 309 17.3 101400 32
2011-04-21 08:24:36 51°10.62 2°42.957 5.3 317 17.3 101400 32
2011-04-21 08:24:41 51°10.615 2°42.927 6.3 307 17.3 101400 32
2011-04-21 08:24:46 51°10.611 2°42.898 5.5 318 17.4 101400 32
2011-04-21 08:24:52 51°10.605 2°42.862 6.5 302 17.4 101400 32
2011-04-21 08:24:56 51°10.602 2°42.838 6.4 319 17.4 101400 33
2011-04-21 08:25:01 51°10.597 2°42.808 5.6 308 17.4 101400 33
2011-04-21 08:25:06 51°10.592 2°42.779 5.7 319 17.4 101400 32
2011-04-21 08:25:12 51°10.586 2°42.743 6.6 307 17.4 101400 32
2011-04-21 08:25:16 51°10.581 2°42.719 6.4 319 17.4 101400 31
2011-04-21 08:25:21 51°10.576 2°42.69 6 301 17.4 101400 31
2011-04-21 08:25:26 51°10.57 2°42.66 5.9 320 17.5 101400 32
2011-04-21 08:25:32 51°10.563 2°42.624 5.8 308 17.5 101400 32
2011-04-21 08:25:36 51°10.558 2°42.601 6.5 321 17.5 101400 31
2011-04-21 08:25:41 51°10.552 2°42.571 6.4 304 17.5 101400 31
2011-04-21 08:25:46 51°10.546 2°42.542 6.7 321 17.5 101400 32
2011-04-21 08:25:52 51°10.539 2°42.506 5.8 322 17.5 101400 32
2011-04-21 08:25:56 51°10.534 2°42.483 5.7 322 17.5 101400 32
2011-04-21 08:26:01 51°10.528 2°42.453 5.6 304 17.5 101400 32
2011-04-21 08:26:06 51°10.522 2°42.424 5.7 322 17.6 101400 32
2011-04-21 08:26:12 51°10.515 2°42.388 6.6 277 17.6 101400 32
2011-04-21 08:26:16 51°10.51 2°42.364 5.7 322 17.6 101400 32
2011-04-21 08:26:21 51°10.505 2°42.335 5.9 304 17.6 101400 32
2011-04-21 08:26:26 51°10.499 2°42.305 6.7 323 17.6 101400 32
2011-04-21 08:26:31 51°10.493 2°42.275 6.5 303 17.6 101400 32
2011-04-21 08:26:36 51°10.487 2°42.245 6.2 322 17.6 101400 35
2011-04-21 08:26:41 51°10.481 2°42.216 7.1 307 17.6 101400 35
2011-04-21 08:26:46 51°10.475 2°42.186 6.2 322 17.6 101400 33
2011-04-21 08:26:52 51°10.467 2°42.151 6.5 302 17.6 101400 33
2011-04-21 08:26:56 51°10.46 2°42.128 6.4 322 17.5 101400 34
2011-04-21 08:27:02 51°10.45 2°42.095 6.8 322 17.5 101400 34
2011-04-21 08:27:07 51°10.44 2°42.068 5.7 324 17.4 101400 34
2011-04-21 08:27:12 51°10.43 2°42.041 6.2 306 17.4 101400 34
2011-04-21 08:27:16 51°10.422 2°42.02 6.5 323 17.4 101400 34
2011-04-21 08:27:21 51°10.412 2°41.994 6.4 304 17.4 101400 34
2011-04-21 08:27:26 51°10.401 2°41.968 6.4 323 17.4 101400 34
2011-04-21 08:27:32 51°10.389 2°41.937 6.4 322 17.4 101400 34
2011-04-21 08:27:36 51°10.38 2°41.917 5.9 323 17.3 101400 34
2011-04-21 08:27:41 51°10.37 2°41.891 6.4 303 17.3 101400 34
2011-04-21 08:27:46 51°10.359 2°41.865 6.4 323 17.3 101400 33
2011-04-21 08:27:52 51°10.348 2°41.833 6.1 322 17.3 101400 33
2011-04-21 08:27:56 51°10.34 2°41.812 6.2 322 17.3 101400 34
2011-04-21 08:28:01 51°10.332 2°41.784 5.2 306 17.3 101400 34
2011-04-21 08:28:06 51°10.325 2°41.756 6 322 17.2 101400 34
2011-04-21 08:28:12 51°10.317 2°41.721 5.3 285 17.2 101400 34
2011-04-21 08:28:16 51°10.313 2°41.697 5.5 323 17.2 101410 34
2011-04-21 08:28:21 51°10.308 2°41.668 5.4 302 17.2 101410 34
2011-04-21 08:28:26 51°10.304 2°41.638 5.8 323 17.2 101410 33
2011-04-21 08:28:31 51°10.3 2°41.608 5.8 306 17.2 101410 33
2011-04-21 08:28:36 51°10.296 2°41.578 5.7 324 17.3 101410 34
2011-04-21 08:28:41 51°10.293 2°41.548 6.3 323 17.3 101410 34
2011-04-21 08:28:46 51°10.29 2°41.517 5.8 324 17.3 101410 33
2011-04-21 08:28:52 51°10.286 2°41.481 5.6 324 17.3 101410 33
2011-04-21 08:28:56 51°10.284 2°41.456 5.8 324 17.3 101410 33
2011-04-21 08:29:02 51°10.279 2°41.42 5.9 304 17.3 101410 33
2011-04-21 08:29:06 51°10.275 2°41.396 5.8 325 17.3 101410 33
2011-04-21 08:29:12 51°10.269 2°41.361 5.7 326 17.3 101410 33
2011-04-21 08:29:16 51°10.263 2°41.337 6.3 326 17.3 101410 33
2011-04-21 08:29:22 51°10.254 2°41.303 5.5 326 17.3 101410 33
2011-04-21 08:29:26 51°10.248 2°41.28 5.4 326 17.3 101410 31
2011-04-21 08:29:32 51°10.239 2°41.246 5.8 327 17.3 101410 31
2011-04-21 08:29:36 51°10.232 2°41.224 5.3 327 17.3 101400 33
2011-04-21 08:29:41 51°10.224 2°41.196 5.5 327 17.3 101400 33
2011-04-21 08:29:46 51°10.215 2°41.168 5.9 327 17.3 101410 33
2011-04-21 08:29:52 51°10.205 2°41.135 6.6 328 17.3 101410 33
2011-04-21 08:29:56 51°10.199 2°41.112 5.8 327 17.3 101400 33
2011-04-21 08:30:01 51°10.191 2°41.084 6.3 301 17.3 101400 33
2011-04-21 08:30:06 51°10.183 2°41.055 6.9 328 17.3 101400 32
2011-04-21 08:30:12 51°10.175 2°41.021 6.7 279 17.3 101400 32
2011-04-21 08:30:16 51°10.169 2°40.997 6.3 328 17.4 101410 33
2011-04-21 08:30:21 51°10.164 2°40.967 6.2 328 17.4 101410 33
2011-04-21 08:30:26 51°10.159 2°40.938 6.2 328 17.4 101410 33
2011-04-21 08:30:31 51°10.154 2°40.907 6.5 328 17.4 101410 33
2011-04-21 08:30:36 51°10.15 2°40.877 6.2 328 17.4 101400 32
2011-04-21 08:30:41 51°10.147 2°40.846 6.5 329 17.4 101400 32
2011-04-21 08:30:46 51°10.143 2°40.816 5.8 328 17.4 101400 32
2011-04-21 08:30:52 51°10.138 2°40.779 6.4 328 17.4 101400 32
2011-04-21 08:30:56 51°10.135 2°40.755 6.2 328 17.4 101410 32
2011-04-21 08:31:01 51°10.131 2°40.725 6.9 328 17.4 101410 32
2011-04-21 08:31:07 51°10.126 2°40.688 6.2 327 17.4 101400 32
2011-04-21 08:31:12 51°10.122 2°40.657 6.8 327 17.4 101400 32
2011-04-21 08:31:16 51°10.119 2°40.633 6.5 327 17.3 101410 32
2011-04-21 08:31:21 51°10.113 2°40.603 5.8 327 17.3 101410 32
2011-04-21 08:31:26 51°10.108 2°40.574 7.1 327 17.3 101400 32
2011-04-21 08:31:32 51°10.1 2°40.538 5.6 302 17.3 101400 32
2011-04-21 08:31:36 51°10.094 2°40.515 5.6 326 17.3 101410 32
2011-04-21 08:31:41 51°10.086 2°40.486 7.2 326 17.3 101410 32
2011-04-21 08:31:47 51°10.077 2°40.452 5.8 326 17.3 101400 33
2011-04-21 08:31:52 51°10.07 2°40.423 6.6 302 17.3 101400 33
2011-04-21 08:31:56 51°10.063 2°40.401 6.8 325 17.3 101410 32
2011-04-21 08:32:00 51°10.057 2°40.378 7.2 303 17.3 101410 32
2011-04-21 08:32:06 51°10.047 2°40.344 6.7 325 17.2 101400 32
2011-04-21 08:32:12 51°10.037 2°40.31 6.7 282 17.2 101400 32
2011-04-21 08:32:16 51°10.031 2°40.287 6.7 324 17.2 101410 32
2011-04-21 08:32:21 51°10.023 2°40.259 6.8 324 17.2 101410 32
2011-04-21 08:32:26 51°10.017 2°40.23 6.4 324 17.2 101410 32
2011-04-21 08:32:32 51°10.009 2°40.194 6.5 304 17.2 101410 32
2011-04-21 08:32:36 51°10.005 2°40.17 6.1 324 17.2 101400 32
2011-04-21 08:32:41 51°9.999 2°40.14 6.2 306 17.2 101400 32
2011-04-21 08:32:46 51°9.995 2°40.11 6 324 17.2 101410 33
2011-04-21 08:32:52 51°9.99 2°40.074 5.8 303 17.2 101410 33
2011-04-21 08:32:56 51°9.987 2°40.049 6.2 324 17.2 101410 33
2011-04-21 08:33:01 51°9.983 2°40.019 5.6 323 17.2 101410 33
2011-04-21 08:33:06 51°9.979 2°39.988 5.5 323 17.2 101410 33
2011-04-21 08:33:12 51°9.975 2°39.951 5.8 303 17.2 101410 33
2011-04-21 08:33:16 51°9.972 2°39.926 6 323 17.2 101400 33
2011-04-21 08:33:21 51°9.969 2°39.896 5.9 303 17.2 101400 33
2011-04-21 08:33:26 51°9.965 2°39.865 5.8 323 17.2 101410 33
2011-04-21 08:33:32 51°9.961 2°39.828 5.5 305 17.2 101410 33
2011-04-21 08:33:36 51°9.957 2°39.804 6.3 323 17.1 101410 33
2011-04-21 08:33:41 51°9.952 2°39.773 6.2 323 17.1 101410 33
2011-04-21 08:33:46 51°9.947 2°39.743 6.3 323 17.1 101410 33
2011-04-21 08:33:52 51°9.94 2°39.708 5.7 301 17.1 101410 33
2011-04-21 08:33:56 51°9.934 2°39.684 5.9 323 17.1 101410 33
2011-04-21 08:34:00 51°9.929 2°39.661 5.8 303 17.1 101410 33
2011-04-21 08:34:07 51°9.919 2°39.62 5.4 323 17.1 101410 32
2011-04-21 08:34:12 51°9.911 2°39.591 6.7 286 17.1 101410 32
2011-04-21 08:34:16 51°9.905 2°39.568 5.9 323 17.1 101410 33
2011-04-21 08:34:21 51°9.897 2°39.539 6.4 301 17.1 101410 33
2011-04-21 08:34:26 51°9.89 2°39.51 5.6 324 17.2 101410 32
2011-04-21 08:34:32 51°9.88 2°39.476 6.4 301 17.2 101410 32
2011-04-21 08:34:36 51°9.874 2°39.453 6.5 323 17.2 101410 32
2011-04-21 08:34:41 51°9.866 2°39.424 6.3 324 17.2 101410 32
2011-04-21 08:34:46 51°9.859 2°39.395 6.1 323 17.2 101410 31
2011-04-21 08:34:52 51°9.851 2°39.36 6.1 323 17.2 101410 31
2011-04-21 08:34:56 51°9.845 2°39.336 6 323 17.2 101410 32
2011-04-21 08:35:01 51°9.839 2°39.306 6.7 324 17.2 101410 32
2011-04-21 08:35:06 51°9.834 2°39.276 5.9 324 17.2 101410 32
2011-04-21 08:35:12 51°9.828 2°39.24 6.1 304 17.2 101410 32
2011-04-21 08:35:16 51°9.824 2°39.216 6.3 325 17.2 101410 33
2011-04-21 08:35:21 51°9.819 2°39.185 6 325 17.2 101410 33
2011-04-21 08:35:26 51°9.815 2°39.154 5.5 325 17.2 101410 32
2011-04-21 08:35:31 51°9.812 2°39.123 6.8 326 17.2 101410 32
2011-04-21 08:35:36 51°9.808 2°39.092 6.4 326 17.2 101410 32
2011-04-21 08:35:41 51°9.804 2°39.061 6.2 326 17.2 101410 32
2011-04-21 08:35:46 51°9.8 2°39.031 5.9 325 17.2 101410 32
2011-04-21 08:35:52 51°9.796 2°38.997 5.5 325 17.2 101410 32
2011-04-21 08:35:56 51°9.793 2°38.975 5.2 325 17.2 101410 32
2011-04-21 08:36:02 51°9.789 2°38.944 4.6 301 17.2 101410 32
2011-04-21 08:36:07 51°9.786 2°38.921 4.9 325 17.2 101410 33
2011-04-21 08:36:12 51°9.782 2°38.899 4.3 285 17.2 101410 33
2011-04-21 08:36:16 51°9.778 2°38.883 4.3 325 17.2 101410 33
2011-04-21 08:36:21 51°9.774 2°38.864 3.7 302 17.2 101410 33
2011-04-21 08:36:26 51°9.769 2°38.847 3.2 323 17.1 101410 33
2011-04-21 08:36:32 51°9.763 2°38.829 3.3 323 17.1 101410 33
2011-04-21 08:36:36 51°9.759 2°38.817 3.3 323 17.1 101410 32
2011-04-21 08:36:41 51°9.754 2°38.804 2.6 323 17.1 101410 32
2011-04-21 08:36:46 51°9.749 2°38.791 2.2 323 17.1 101410 32
2011-04-21 08:36:52 51°9.742 2°38.778 2.4 303 17.1 101410 32
2011-04-21 08:36:56 51°9.738 2°38.769 0.8 323 17.1 101410 32
2011-04-21 08:37:01 51°9.734 2°38.759 1.7 323 17.1 101410 32
2011-04-21 08:37:06 51°9.729 2°38.749 2.3 323 17.1 101420 33
2011-04-21 08:37:12 51°9.723 2°38.738 1.8 322 17.1 101420 33
2011-04-21 08:37:16 51°9.719 2°38.731 0.7 323 17.1 101410 33
2011-04-21 08:37:21 51°9.715 2°38.723 1.7 305 17.1 101410 33
2011-04-21 08:37:26 51°9.71 2°38.715 1 322 17.1 101420 31
2011-04-21 08:37:31 51°9.706 2°38.707 1.4 306 17.1 101420 31
2011-04-21 08:37:36 51°9.702 2°38.7 0.7 322 17.1 101410 33
2011-04-21 08:37:41 51°9.697 2°38.693 0.1 304 17.1 101410 33
2011-04-21 08:37:46 51°9.693 2°38.687 0.1 322 17.2 101410 32
2011-04-21 08:37:52 51°9.688 2°38.679 -999 305 17.2 101410 32
2011-04-21 08:37:56 51°9.685 2°38.674 -999 322 17.2 101410 33
2011-04-21 08:38:01 51°9.681 2°38.668 -999 305 17.2 101410 33
2011-04-21 08:38:07 51°9.676 2°38.661 -999 323 17.2 101410 33
2011-04-21 08:38:12 51°9.672 2°38.656 -999 282 17.2 101410 33
2011-04-21 08:38:16 51°9.669 2°38.652 -999 323 17.2 101410 33
2011-04-21 08:38:21 51°9.666 2°38.646 -999 305 17.2 101410 33
2011-04-21 08:38:26 51°9.662 2°38.641 -999 323 17.3 101420 33
2011-04-21 08:38:32 51°9.658 2°38.636 -999 305 17.3 101420 33
2011-04-21 08:38:36 51°9.655 2°38.632 -999 324 17.3 101410 33
2011-04-21 08:38:41 51°9.651 2°38.627 -999 305 17.3 101410 33
2011-04-21 08:38:47 51°9.647 2°38.62 -999 325 17.3 101420 33
2011-04-21 08:38:52 51°9.643 2°38.615 -999 305 17.3 101420 33
2011-04-21 08:38:56 51°9.64 2°38.611 -999 325 17.4 101410 33
2011-04-21 08:39:00 51°9.636 2°38.607 -999 305 17.4 101410 33
2011-04-21 08:39:06 51°9.631 2°38.601 -999 324 17.4 101410 33
2011-04-21 08:39:12 51°9.627 2°38.594 -999 305 17.4 101410 33
2011-04-21 08:39:16 51°9.623 2°38.589 -999 323 17.4 101410 33
2011-04-21 08:39:21 51°9.619 2°38.583 -999 305 17.4 101410 33
2011-04-21 08:39:26 51°9.615 2°38.577 -999 323 17.5 101410 32
2011-04-21 08:39:32 51°9.611 2°38.569 -999 305 17.5 101410 32
2011-04-21 08:39:36 51°9.608 2°38.564 -999 323 17.5 101410 32
2011-04-21 08:39:41 51°9.604 2°38.557 -999 305 17.5 101410 32
2011-04-21 08:39:46 51°9.6 2°38.55 -999 323 17.5 101420 33
2011-04-21 08:39:52 51°9.596 2°38.541 -999 305 17.5 101420 33
2011-04-21 08:39:56 51°9.593 2°38.536 -999 323 17.6 101410 33
2011-04-21 08:40:01 51°9.589 2°38.529 -999 305 17.6 101410 33
2011-04-21 08:40:06 51°9.586 2°38.522 -999 322 17.6 101410 31
2011-04-21 08:40:12 51°9.582 2°38.513 -999 282 17.6 101410 31
2011-04-21 08:40:16 51°9.579 2°38.507 -999 322 17.6 101420 33
2011-04-21 08:40:21 51°9.576 2°38.499 -999 305 17.6 101420 33
2011-04-21 08:40:26 51°9.573 2°38.492 -999 321 17.6 101410 33
2011-04-21 08:40:32 51°9.569 2°38.483 -999 305 17.6 101410 33
2011-04-21 08:40:36 51°9.566 2°38.477 -999 322 17.6 101420 32
2011-04-21 08:40:41 51°9.563 2°38.469 -999 305 17.6 101420 32
2011-04-21 08:40:47 51°9.56 2°38.46 -999 321 17.6 101420 32
2011-04-21 08:40:52 51°9.557 2°38.453 -999 305 17.6 101420 32
2011-04-21 08:40:56 51°9.555 2°38.446 -999 321 17.6 101420 32
2011-04-21 08:41:00 51°9.552 2°38.44 0.1 321 17.6 101420 32
2011-04-21 08:41:07 51°9.549 2°38.429 0.1 320 17.6 101410 33
2011-04-21 08:41:12 51°9.546 2°38.421 0.1 305 17.6 101410 33
2011-04-21 08:41:16 51°9.544 2°38.415 -999 320 17.6 101410 32
2011-04-21 08:41:21 51°9.541 2°38.407 -999 305 17.6 101410 32
2011-04-21 08:41:26 51°9.539 2°38.399 -999 320 17.6 101410 32
2011-04-21 08:41:32 51°9.536 2°38.389 -999 306 17.6 101410 32
2011-04-21 08:41:36 51°9.534 2°38.382 -999 320 17.7 101420 32
2011-04-21 08:41:41 51°9.532 2°38.374 -999 305 17.7 101420 32
2011-04-21 08:41:46 51°9.529 2°38.366 -999 320 17.7 101410 32
2011-04-21 08:41:52 51°9.527 2°38.357 -999 305 17.7 101410 32
2011-04-21 08:41:56 51°9.525 2°38.35 -999 320 17.7 101410 32
2011-04-21 08:42:01 51°9.523 2°38.342 -999 305 17.7 101410 32
2011-04-21 08:42:06 51°9.52 2°38.334 -999 320 17.7 101420 32
2011-04-21 08:42:12 51°9.518 2°38.324 -999 281 17.7 101420 32
2011-04-21 08:42:16 51°9.516 2°38.317 -999 320 17.7 101420 32
2011-04-21 08:42:21 51°9.514 2°38.309 -999 305 17.7 101420 32
2011-04-21 08:42:26 51°9.512 2°38.301 -999 318 17.7 101410 32
2011-04-21 08:42:32 51°9.509 2°38.291 -999 305 17.7 101410 32
2011-04-21 08:42:36 51°9.508 2°38.284 -999 318 17.7 101420 32
2011-04-21 08:42:41 51°9.506 2°38.276 -999 305 17.7 101420 32
2011-04-21 08:42:46 51°9.504 2°38.268 -999 317 17.7 101420 31
2011-04-21 08:42:52 51°9.502 2°38.258 -999 305 17.7 101420 31
2011-04-21 08:42:56 51°9.5 2°38.251 -999 317 17.8 101420 32
2011-04-21 08:43:00 51°9.499 2°38.244 -999 305 17.8 101420 32
2011-04-21 08:43:07 51°9.497 2°38.232 -999 317 17.8 101410 32
2011-04-21 08:43:12 51°9.495 2°38.224 -999 282 17.8 101410 32
2011-04-21 08:43:16 51°9.494 2°38.217 -999 315 17.8 101420 32
2011-04-21 08:43:21 51°9.492 2°38.209 -999 305 17.8 101420 32
2011-04-21 08:43:26 51°9.491 2°38.2 -999 25 17.8 101410 32
2011-04-21 08:43:32 51°9.489 2°38.19 -999 305 17.8 101410 32
2011-04-21 08:43:36 51°9.488 2°38.183 -999 25 17.8 101410 32
2011-04-21 08:43:41 51°9.486 2°38.175 -999 305 17.8 101410 32
2011-04-21 08:43:46 51°9.485 2°38.166 -999 25 17.8 101420 32
2011-04-21 08:43:52 51°9.484 2°38.156 -999 305 17.8 101420 32
2011-04-21 08:43:56 51°9.483 2°38.149 -999 25 17.8 101420 32
2011-04-21 08:44:01 51°9.482 2°38.141 -999 305 17.8 101420 32
2011-04-21 08:44:06 51°9.48 2°38.132 -999 25 17.8 101420 32
2011-04-21 08:44:12 51°9.479 2°38.122 -999 305 17.8 101420 32
2011-04-21 08:44:16 51°9.478 2°38.115 -999 25 17.9 101420 32
2011-04-21 08:44:21 51°9.477 2°38.107 -999 305 17.9 101420 32
2011-04-21 08:44:26 51°9.477 2°38.098 -999 25 17.9 101410 32
2011-04-21 08:44:32 51°9.475 2°38.088 -999 305 17.9 101410 32
2011-04-21 08:44:36 51°9.475 2°38.081 -999 25 17.9 101420 32
2011-04-21 08:44:41 51°9.474 2°38.072 -999 305 17.9 101420 32
2011-04-21 08:44:47 51°9.473 2°38.062 -999 25 17.9 101410 32
2011-04-21 08:44:52 51°9.472 2°38.054 -999 305 17.9 101410 32
2011-04-21 08:44:56 51°9.472 2°38.047 -999 25 17.9 101410 32
2011-04-21 08:45:01 51°9.471 2°38.038 -999 305 17.9 101410 32
2011-04-21 08:45:07 51°9.471 2°38.028 -999 25 17.9 101410 32
2011-04-21 08:45:12 51°9.47 2°38.02 -999 282 17.9 101410 32
2011-04-21 08:45:16 51°9.47 2°38.013 -999 25 17.9 101410 32
2011-04-21 08:45:21 51°9.469 2°38.005 -999 305 17.9 101410 32
2011-04-21 08:45:26 51°9.469 2°37.996 -999 25 17.9 101410 31
2011-04-21 08:45:32 51°9.468 2°37.986 -999 305 17.9 101410 31
2011-04-21 08:45:36 51°9.468 2°37.98 -999 25 17.9 101410 32
2011-04-21 08:45:41 51°9.467 2°37.971 -999 305 17.9 101410 32
2011-04-21 08:45:46 51°9.467 2°37.962 -999 25 17.9 101420 32
2011-04-21 08:45:52 51°9.466 2°37.952 -999 305 17.9 101420 32
2011-04-21 08:45:56 51°9.466 2°37.946 -999 25 17.9 101410 32
2011-04-21 08:46:02 51°9.465 2°37.935 -999 305 17.9 101410 32
2011-04-21 08:46:06 51°9.465 2°37.929 -999 25 17.9 101410 32
2011-04-21 08:46:11 51°9.464 2°37.92 -999 282 17.9 101410 32
2011-04-21 08:46:16 51°9.464 2°37.912 -999 25 17.9 101410 32
2011-04-21 08:46:21 51°9.463 2°37.903 -999 305 17.9 101410 32
2011-04-21 08:46:26 51°9.462 2°37.895 -999 25 17.9 101410 32
2011-04-21 08:46:32 51°9.462 2°37.884 -999 305 17.9 101410 32
2011-04-21 08:46:36 51°9.461 2°37.877 -999 25 17.9 101410 32
2011-04-21 08:46:41 51°9.46 2°37.869 -999 305 17.9 101410 32
2011-04-21 08:46:46 51°9.46 2°37.86 -999 25 17.9 101420 32
2011-04-21 08:46:52 51°9.459 2°37.85 -999 305 17.9 101420 32
2011-04-21 08:46:56 51°9.458 2°37.843 -999 25 17.9 101410 32
2011-04-21 08:47:01 51°9.458 2°37.835 -999 305 17.9 101410 32
2011-04-21 08:47:06 51°9.457 2°37.826 -999 25 17.9 101410 32
2011-04-21 08:47:12 51°9.456 2°37.816 -999 282 17.9 101410 32
2011-04-21 08:47:16 51°9.455 2°37.809 -999 25 17.9 101410 32
2011-04-21 08:47:21 51°9.454 2°37.8 -999 305 17.9 101410 32
2011-04-21 08:47:26 51°9.453 2°37.792 -999 25 18 101410 32
2011-04-21 08:47:32 51°9.452 2°37.782 -999 305 18 101410 32
2011-04-21 08:47:36 51°9.451 2°37.775 -999 25 17.9 101410 32
2011-04-21 08:47:41 51°9.451 2°37.767 -999 305 17.9 101410 32
2011-04-21 08:47:47 51°9.45 2°37.756 -999 25 17.9 101410 32
2011-04-21 08:47:52 51°9.448 2°37.748 -999 305 17.9 101410 32
2011-04-21 08:47:56 51°9.448 2°37.741 -999 25 18 101420 32
2011-04-21 08:48:01 51°9.447 2°37.732 -999 305 18 101420 32
2011-04-21 08:48:06 51°9.446 2°37.724 -999 25 18 101410 31
2011-04-21 08:48:11 51°9.444 2°37.716 -999 282 18 101410 31
2011-04-21 08:48:16 51°9.443 2°37.707 -999 25 18 101410 32
2011-04-21 08:48:21 51°9.442 2°37.698 -999 305 18 101410 32
2011-04-21 08:48:26 51°9.441 2°37.69 -999 25 18 101410 32
2011-04-21 08:48:31 51°9.44 2°37.682 -999 305 18 101410 32
2011-04-21 08:48:36 51°9.439 2°37.673 -999 25 18 101410 32
2011-04-21 08:48:41 51°9.438 2°37.665 -999 305 18 101410 32
2011-04-21 08:48:46 51°9.436 2°37.656 -999 25 18 101410 32
2011-04-21 08:48:51 51°9.435 2°37.648 -999 305 18 101410 32
2011-04-21 08:48:56 51°9.434 2°37.639 -999 25 18 101410 32
2011-04-21 08:49:01 51°9.433 2°37.631 -999 305 18 101410 32
2011-04-21 08:49:07 51°9.431 2°37.621 -999 25 18 101410 32
2011-04-21 08:49:12 51°9.43 2°37.612 -999 305 18 101410 32
2011-04-21 08:49:16 51°9.429 2°37.605 -999 25 18 101410 32
2011-04-21 08:49:21 51°9.428 2°37.597 -999 305 18 101410 32
2011-04-21 08:49:26 51°9.426 2°37.589 -999 25 18.1 101410 32
2011-04-21 08:49:32 51°9.425 2°37.578 -999 305 18.1 101410 32
2011-04-21 08:49:36 51°9.424 2°37.572 -999 25 18.1 101410 32
2011-04-21 08:49:41 51°9.423 2°37.563 -999 305 18.1 101410 32
2011-04-21 08:49:47 51°9.421 2°37.553 -999 25 18.1 101410 32
2011-04-21 08:49:52 51°9.42 2°37.544 -999 305 18.1 101410 32
2011-04-21 08:49:56 51°9.419 2°37.537 -999 25 18.1 101410 32
2011-04-21 08:50:01 51°9.418 2°37.529 -999 305 18.1 101410 32
2011-04-21 08:50:06 51°9.417 2°37.52 -999 25 18.1 101410 32
2011-04-21 08:50:12 51°9.416 2°37.51 -999 282 18.1 101410 32
2011-04-21 08:50:16 51°9.415 2°37.503 -999 25 18.1 101410 32
2011-04-21 08:50:21 51°9.414 2°37.495 -999 305 18.1 101410 32
2011-04-21 08:50:26 51°9.413 2°37.486 -999 25 18.1 101410 32
2011-04-21 08:50:32 51°9.412 2°37.476 -999 305 18.1 101410 32
2011-04-21 08:50:36 51°9.411 2°37.469 -999 25 18.1 101410 32
2011-04-21 08:50:41 51°9.41 2°37.46 -999 305 18.1 101410 32
2011-04-21 08:50:46 51°9.409 2°37.452 -999 25 18.1 101410 31
2011-04-21 08:50:51 51°9.408 2°37.443 -999 305 18.1 101410 31
2011-04-21 08:50:56 51°9.407 2°37.435 -999 25 18.1 101410 32
2011-04-21 08:51:01 51°9.406 2°37.426 -999 305 18.1 101410 32
2011-04-21 08:51:06 51°9.405 2°37.417 -999 25 18.1 101410 32
2011-04-21 08:51:11 51°9.404 2°37.409 -999 282 18.1 101410 32
2011-04-21 08:51:16 51°9.404 2°37.4 -999 25 18.1 101410 32
2011-04-21 08:51:22 51°9.402 2°37.389 -999 305 18.1 101410 32
2011-04-21 08:51:26 51°9.402 2°37.383 -999 25 18.1 101410 32
2011-04-21 08:51:31 51°9.401 2°37.374 -999 305 18.1 101410 32
2011-04-21 08:51:36 51°9.4 2°37.365 -999 25 18.2 101410 32
2011-04-21 08:51:41 51°9.399 2°37.356 -999 305 18.2 101410 32
2011-04-21 08:51:47 51°9.398 2°37.346 -999 25 18.2 101410 32
2011-04-21 08:51:52 51°9.397 2°37.337 -999 305 18.2 101410 32
2011-04-21 08:51:56 51°9.397 2°37.33 -999 25 18.2 101410 32
2011-04-21 08:52:01 51°9.396 2°37.322 -999 305 18.2 101410 32
2011-04-21 08:52:07 51°9.395 2°37.311 -999 25 18.2 101410 31
2011-04-21 08:52:12 51°9.395 2°37.302 -999 282 18.2 101410 31
2011-04-21 08:52:16 51°9.394 2°37.295 -999 25 18.2 101410 32
2011-04-21 08:52:21 51°9.393 2°37.287 -999 305 18.2 101410 32
2011-04-21 08:52:26 51°9.393 2°37.278 -999 25 18.2 101410 32
2011-04-21 08:52:32 51°9.392 2°37.267 -999 305 18.2 101410 32
2011-04-21 08:52:36 51°9.391 2°37.26 -999 25 18.2 101410 32
2011-04-21 08:52:41 51°9.391 2°37.252 -999 305 18.2 101410 32
2011-04-21 08:52:46 51°9.39 2°37.243 -999 25 18.3 101410 32
2011-04-21 08:52:51 51°9.389 2°37.234 -999 305 18.3 101410 32
2011-04-21 08:52:56 51°9.389 2°37.225 -999 25 18.3 101410 32
2011-04-21 08:53:01 51°9.388 2°37.216 -999 305 18.3 101410 32
2011-04-21 08:53:06 51°9.388 2°37.208 -999 25 18.3 101410 32
2011-04-21 08:53:11 51°9.387 2°37.199 -999 282 18.3 101410 32
2011-04-21 08:53:16 51°9.387 2°37.19 -999 25 18.3 101410 31
2011-04-21 08:53:21 51°9.386 2°37.181 -999 305 18.3 101410 31
2011-04-21 08:53:26 51°9.386 2°37.173 -999 25 18.3 101410 30
2011-04-21 08:53:31 51°9.385 2°37.164 -999 305 18.3 101410 30
2011-04-21 08:53:36 51°9.385 2°37.155 -999 25 18.4 101410 32
2011-04-21 08:53:41 51°9.384 2°37.146 -999 305 18.4 101410 32
2011-04-21 08:53:47 51°9.384 2°37.135 -999 25 18.4 101410 32
2011-04-21 08:53:52 51°9.384 2°37.127 -999 305 18.4 101410 32
2011-04-21 08:53:56 51°9.383 2°37.12 -999 25 18.4 101410 31
2011-04-21 08:54:01 51°9.383 2°37.111 -999 305 18.4 101410 31
2011-04-21 08:54:06 51°9.383 2°37.102 -999 25 18.4 101410 31
2011-04-21 08:54:12 51°9.382 2°37.092 -999 282 18.4 101410 31
2011-04-21 08:54:16 51°9.382 2°37.085 -999 25 18.4 101410 31
2011-04-21 08:54:21 51°9.381 2°37.076 -999 305 18.4 101410 31
2011-04-21 08:54:27 51°9.381 2°37.065 -999 25 18.4 101410 31
2011-04-21 08:54:32 51°9.38 2°37.057 -999 305 18.4 101410 31
2011-04-21 08:54:36 51°9.379 2°37.05 -999 25 18.4 101410 31
2011-04-21 08:54:41 51°9.379 2°37.041 -999 305 18.4 101410 31
2011-04-21 08:54:46 51°9.378 2°37.032 -999 25 18.5 101410 31
2011-04-21 08:54:52 51°9.377 2°37.022 -999 305 18.5 101410 31
2011-04-21 08:54:56 51°9.376 2°37.015 -999 25 18.5 101410 31
2011-04-21 08:55:01 51°9.375 2°37.006 -999 305 18.5 101410 31
2011-04-21 08:55:06 51°9.374 2°36.998 -999 25 18.5 101410 31
2011-04-21 08:55:11 51°9.373 2°36.989 -999 282 18.5 101410 31
2011-04-21 08:55:16 51°9.372 2°36.981 -999 25 18.5 101410 31
2011-04-21 08:55:21 51°9.371 2°36.972 -999 305 18.5 101410 31
2011-04-21 08:55:26 51°9.37 2°36.963 -999 25 18.5 101410 31
2011-04-21 08:55:31 51°9.368 2°36.955 -999 305 18.5 101410 31
2011-04-21 08:55:36 51°9.367 2°36.947 -999 25 18.5 101410 31
2011-04-21 08:55:41 51°9.366 2°36.938 -999 305 18.5 101410 31
2011-04-21 08:55:46 51°9.364 2°36.93 -999 25 18.6 101410 31
2011-04-21 08:55:51 51°9.362 2°36.921 -999 305 18.6 101410 31
2011-04-21 08:55:56 51°9.361 2°36.913 -999 25 18.6 101410 31
2011-04-21 08:56:01 51°9.359 2°36.905 -999 305 18.6 101410 31
2011-04-21 08:56:07 51°9.357 2°36.895 -999 25 18.6 101410 30
2011-04-21 08:56:12 51°9.355 2°36.887 -999 282 18.6 101410 30
2011-04-21 08:56:16 51°9.354 2°36.88 -999 25 18.6 101410 31
2011-04-21 08:56:21 51°9.352 2°36.872 -999 305 18.6 101410 31
2011-04-21 08:56:27 51°9.35 2°36.862 -999 25 18.6 101410 31
2011-04-21 08:56:32 51°9.348 2°36.854 -999 305 18.6 101410 31
2011-04-21 08:56:36 51°9.346 2°36.848 -999 25 18.6 101400 31
2011-04-21 08:56:41 51°9.344 2°36.84 -999 305 18.6 101400 31
2011-04-21 08:56:46 51°9.342 2°36.832 -999 25 18.6 101410 31
2011-04-21 08:56:52 51°9.339 2°36.822 -999 305 18.6 101410 31
2011-04-21 08:56:56 51°9.337 2°36.816 -999 25 18.6 101410 31
2011-04-21 08:57:01 51°9.335 2°36.808 -999 305 18.6 101410 31
2011-04-21 08:57:06 51°9.333 2°36.8 -999 25 18.7 101410 31
2011-04-21 08:57:11 51°9.33 2°36.792 -999 305 18.7 101410 31
2011-04-21 08:57:16 51°9.328 2°36.785 -999 25 18.7 101410 31
2011-04-21 08:57:21 51°9.325 2°36.777 -999 305 18.7 101410 31
2011-04-21 08:57:26 51°9.323 2°36.769 -999 25 18.7 101410 31
2011-04-21 08:57:31 51°9.32 2°36.761 -999 305 18.7 101410 31
2011-04-21 08:57:36 51°9.318 2°36.754 -999 25 18.7 101410 31
2011-04-21 08:57:41 51°9.315 2°36.746 -999 305 18.7 101410 31
2011-04-21 08:57:46 51°9.312 2°36.738 -999 25 18.7 101400 31
2011-04-21 08:57:51 51°9.309 2°36.731 -999 305 18.7 101400 31
2011-04-21 08:57:56 51°9.307 2°36.723 -999 25 18.7 101410 31
2011-04-21 08:58:01 51°9.304 2°36.716 -999 305 18.7 101410 31
2011-04-21 08:58:06 51°9.301 2°36.708 -999 25 18.7 101400 31
2011-04-21 08:58:11 51°9.299 2°36.701 -999 282 18.7 101400 31
2011-04-21 08:58:16 51°9.296 2°36.693 -999 25 18.7 101410 31
2011-04-21 08:58:20 51°9.294 2°36.687 -999 305 18.7 101410 31
2011-04-21 08:58:27 51°9.29 2°36.676 -999 25 18.7 101400 31
2011-04-21 08:58:31 51°9.287 2°36.67 -999 305 18.7 101400 31
2011-04-21 08:58:36 51°9.284 2°36.663 -999 25 18.7 101400 31
2011-04-21 08:58:40 51°9.282 2°36.657 -999 305 18.7 101400 31
2011-04-21 08:58:47 51°9.278 2°36.646 -999 25 18.8 101410 30
2011-04-21 08:58:52 51°9.275 2°36.639 -999 305 18.8 101410 30
2011-04-21 08:58:56 51°9.273 2°36.632 -999 25 18.8 101410 31
2011-04-21 08:59:01 51°9.27 2°36.625 -999 305 18.8 101410 31
2011-04-21 08:59:06 51°9.267 2°36.617 -999 25 18.8 101400 31
2011-04-21 08:59:12 51°9.264 2°36.608 -999 282 18.8 101400 31
2011-04-21 08:59:16 51°9.262 2°36.601 -999 25 18.8 101410 31
2011-04-21 08:59:20 51°9.259 2°36.595 -999 305 18.8 101410 31
2011-04-21 08:59:26 51°9.256 2°36.586 -999 25 18.8 101410 31
2011-04-21 08:59:32 51°9.253 2°36.576 -999 305 18.8 101410 31
2011-04-21 08:59:36 51°9.25 2°36.57 -999 25 18.8 101410 31